Regional Weather Roundup
Issued by NWS Charleston, WV

Home | Current Version | Previous Version | Graphics & Text | Print | Product List | Glossary On
Versions: 1 2 3 4 5 6 7 8 9 10 11 12 13 14 15 16 17 18 19 20 21 22 23 24 25 26 27 28 29 30 31 32 33 34 35 36 37 38 39 40 41 42 43 44 45 46 47 48 49 50
000
ASUS41 KRLX 260210
RWRRLX
West Virginia Regional Weather Roundup
National Weather Service Charleston WV
1000 PM EDT SAT APR 25 2015

Note: "fair" indicates few or no clouds below 12,000 feet with no
significant weather and/or obstructions to visibility.

WVZ003-260300-
Northern Panhandle of West Virginia

CITY           SKY/WX    TMP DP  RH WIND       PRES   REMARKS
WHEELING       CLOUDY    47  31  53 E6        29.64F
$$

WVZ009-260300-
Northwest West Virginia

CITY           SKY/WX    TMP DP  RH WIND       PRES   REMARKS
PARKERSBURG    PTCLDY    42  40  92 N5        29.70F
$$

WVZ006-260300-
Western West Virginia

CITY           SKY/WX    TMP DP  RH WIND       PRES   REMARKS
HUNTINGTON     CLOUDY    44  44 100 NE10G17   29.60F FOG
$$

WVZ015-260300-
West Central West Virginia

CITY           SKY/WX    TMP DP  RH WIND       PRES   REMARKS
CHARLESTON     CLOUDY    47  45  93 NE7       29.61F
$$

WVZ022-031-260300-
North Central West Virginia

CITY           SKY/WX    TMP DP  RH WIND       PRES   REMARKS
CLARKSBURG     CLOUDY    42  39  89 NE7       29.67F
MORGANTOWN     LGT RAIN  42  36  79 VRB6      29.69F
$$

WVZ025-035-042-045-260300-
Southern West Virginia

CITY           SKY/WX    TMP DP  RH WIND       PRES   REMARKS
BECKLEY        CLOUDY    44  41  89 SE9       29.61F
LOGAN          FOG       48  48 100 CALM      29.55F VSB 1
BLUEFIELD      MOCLDY    47  42  83 VRB5      29.63S
LEWISBURG      LGT RAIN  42  40  93 NW3       29.66R
$$

WVZ047-260300-
Northern Mountains of West Virginia

CITY           SKY/WX    TMP DP  RH WIND       PRES   REMARKS
ELKINS         CLOUDY    43  40  89 N3        29.67S
$$

WVZ052-260300-
Eastern Panhandle of West Virginia

CITY           SKY/WX    TMP DP  RH WIND       PRES   REMARKS
MARTINSBURG    LGT RAIN  40  37  89 SW5       29.77S FOG
PETERSBURG     RAIN      42  37  84 CALM      29.74S
$$



USA.gov is the U.S. government's official web portal to all federal, state and local government web resources and services.